Location: Chisos Basin
(29.2675°N, 103.3000°W)
Time: 13:27:57
(UTC-05:00)

ISS - Visible Passes

Search period start: 14 August 2020 00:00
Search period end: 24 August 2020 00:00
Orbit: 418 x 420 km, 51.6° (Epoch: 15 August)

Date Brightness Start Highest point End Pass type
(mag) Time Alt. Az. Time Alt. Az. Time Alt. Az.
19 Aug -0.7 06:50:58 10° SE 06:51:46 11° SE 06:52:35 10° ESE visible
21 Aug -2.6 06:49:50 10° SSW 06:53:00 41° SE 06:56:12 10° ENE visible
22 Aug -1.5 06:03:32 13° S 06:05:28 21° SE 06:08:04 10° ENE visible
23 Aug -0.7 05:18:20 10° ESE 05:18:20 10° ESE 05:18:44 10° ESE visible
23 Aug -3.2 06:51:19 11° WSW 06:54:26 44° NW 06:57:39 10° NNE visible
